Flag for U.S.A. Weather past 2 weeks in Sterling Heights, Michigan, U.S.A.

Now
56 °F

Partly sunny.


Feels Like: 55 °F
Forecast: 42 / 67 °F
Wind: 7 mph from East

Location: Selfridge Air National Guard Base

Current Time: Sep 19, 2014 at 1:03:23 PM

Latest Report: Sep 19, 2014 at 11:55 AM


Visibility: 10 mi

Pressure: 30.26 "Hg

Humidity: 86%

Dew point: 52 °F

Location of Sterling HeightsLocation

Historic Weather in Sterling Heights — Graph

°F

Sterling Heights temperature yesterday

Maximum temperature yesterday: 63 °F (at 1:56 PM)
Minimum temperature yesterday: 46 °F (at 11:58 PM)
Average temperature yesterday: 54 °F

Past Weeks' High & Low Weather Summary

 TemperatureHumidityPressure
High92 °F (Sep 5, 2:55 PM)100% (Sep 6, 6:01 AM)30.38 "Hg (Sep 6, 6:01 AM)
Low38 °F (Sep 19, 5:58 AM)42% (Sep 17, 1:55 PM)29.57 "Hg (Sep 10, 10:58 PM)
Average61 °F76%30.09 "Hg
* Reported Sep 4 11:55 AM — Sep 19 11:55 AM, Sterling Heights, Weather by CustomWeather, © 2014

Note: Actual official high and low records may vary slightly from our data, if they occured in-between our weather recording intervals... More about our weather records

Advertising

Sterling Heights weather history for previous 24 hours

 ConditionsComfort  
Time TempWeatherWind HumidityBarometerVisibility
11:55 AM
Sep 19
56 °FPartly sunny.7 mph86%30.26 "Hg10 mi
10:55 AM54 °FPassing clouds.6 mph87%30.27 "Hg10 mi
9:55 AM51 °FPassing clouds.3 mph86%30.28 "Hg10 mi
8:55 AM46 °FPassing clouds.3 mph82%30.27 "Hg10 mi
7:55 AM40 °FPassing clouds.3 mph100%30.27 "Hg10 mi
6:58 AM39 °FClear.8 mph100%30.25 "Hg10 mi
5:58 AM38 °FClear.3 mph100%30.24 "Hg10 mi
4:58 AM39 °FClear.5 mph100%30.24 "Hg10 mi
3:58 AM41 °FClear.2 mph100%30.24 "Hg10 mi
2:58 AM43 °FClear.3 mph100%30.24 "Hg10 mi
1:58 AM44 °FClear.5 mph100%30.24 "Hg10 mi
12:58 AM44 °FClear.2 mph99%30.24 "Hg10 mi
11:58 PM
Sep 18
46 °FClear.2 mph99%30.24 "Hg10 mi
10:58 PM47 °FClear.3 mph99%30.22 "Hg10 mi
9:58 PM48 °FClear.6 mph99%30.20 "Hg10 mi
8:58 PM49 °FClear.8 mph99%30.19 "Hg10 mi
7:55 PM52 °FScattered clouds.10 mph85%30.19 "Hg12 mi
6:55 PM56 °FPartly sunny.10 mph78%30.18 "Hg12 mi
5:55 PM58 °FBroken clouds.12 mph77%30.17 "Hg12 mi
4:55 PM60 °FBroken clouds.10 mph80%30.17 "Hg12 mi
3:55 PM62 °FBroken clouds.9 mph77%30.17 "Hg12 mi
2:55 PM62 °FPartly sunny.12 mph79%30.17 "Hg12 mi
1:56 PM63 °FPartly sunny.8 mph73%30.17 "Hg12 mi
Weather by CustomWeather, © 2014

See weather overviewHow to use our weather pages